This is the latest recevied weather packets stored in our database for station/object CA3EAP-13. If no packets are shown the sender has not sent any weather packets the latest 10 day(s).
| Time | Temp. | Humidity | Pressure | Rain* | Wind** | Luminosity | Snow |
|---|---|---|---|---|---|---|---|
| 1777496704 | 25° C | 36% | 1008.8 hPa | - | - | - | - |
| 1777496104 | 25.56° C | 32% | 1008.7 hPa | - | - | - | - |
| 1777495504 | 25.56° C | 32% | 1008.8 hPa | - | - | - | - |
| 1777494904 | 25.56° C | 32% | 1008.8 hPa | - | - | - | - |
| 1777494304 | 25.56° C | 32% | 1008.8 hPa | - | - | - | - |
| 1777493704 | 25.56° C | 32% | 1008.9 hPa | - | - | - | - |
| 1777493104 | 25.56° C | 33% | 1008.9 hPa | - | - | - | - |
| 1777492504 | 25.56° C | 34% | 1008.9 hPa | - | - | - | - |
| 1777491904 | 25.56° C | 34% | 1008.9 hPa | - | - | - | - |
| 1777491304 | 25.56° C | 33% | 1009 hPa | - | - | - | - |
| 1777490704 | 25.56° C | 34% | 1009.1 hPa | - | - | - | - |
| 1777490104 | 25° C | 34% | 1009.3 hPa | - | - | - | - |
| 1777489504 | 25° C | 35% | 1009.4 hPa | - | - | - | - |
| 1777488904 | 25° C | 35% | 1009.6 hPa | - | - | - | - |
| 1777488304 | 24.44° C | 36% | 1009.7 hPa | - | - | - | - |
| 1777487704 | 24.44° C | 37% | 1009.8 hPa | - | - | - | - |
| 1777487104 | 24.44° C | 38% | 1010 hPa | - | - | - | - |
| 1777486504 | 24.44° C | 36% | 1010.1 hPa | - | - | - | - |
| 1777485904 | 24.44° C | 37% | 1010.3 hPa | - | - | - | - |
| 1777485304 | 23.89° C | 38% | 1010.4 hPa | - | - | - | - |
| 1777484704 | 24.44° C | 38% | 1010.6 hPa | - | - | - | - |
| 1777484104 | 23.89° C | 38% | 1010.8 hPa | - | - | - | - |
| 1777483504 | 23.89° C | 38% | 1011 hPa | - | - | - | - |
| 1777482904 | 23.33° C | 40% | 1011.2 hPa | - | - | - | - |
| 1777482304 | 23.33° C | 41% | 1011.5 hPa | - | - | - | - |
* Rain since midnight (hover to see other rain measurements)
** Current wind speed in m/s (hover to see current wind gust speed)